Location: La Chapelle
(48.3135°N, 1.3085°W)
Time: 00:26:19
(UTC+00:00)

ATLAS CENTAUR R/B - Pass Details

Date: 03 March 2021
Orbit: 475 x 670 km, 64.7° (Epoch: 30 March)

Event Time Altitude Azimuth Distance (km) Brightness Sun altitude
Rises 19:56:26 0° 230° (SW) 2,519 5.2 -21.2°
Reaches altitude 10° 19:58:36 10° 235° (SW) 1,641 4.2 -21.6°
Maximum altitude 20:02:09 52° 313° (NW) 603 1.8 -22.1°
Enters shadow 20:03:16 36° 6° (N) 771 2.1 -22.3°
